Location: Launay
(47.2429°N, 1.5727°E)
Time: 22:43:10
(UTC+00:00)

Ariane Rocket - Pass Details

Date: 19 May 2025
Orbit: 756 x 764 km, 98.5° (Epoch: 11 June)

Event Time Altitude Azimuth Distance (km) Brightness Sun altitude
Exits shadow 21:17:02 21° 161° (SSE) 1,675 4.2 -14.5°
Maximum altitude 21:20:30 84° 74° (ENE) 773 3.0 -14.8°
Drops below altitude 10° 21:25:36 10° 347° (NNW) 2,309 6.6 -15.3°
Sets 21:27:55 0° 347° (NNW) 3,241 7.6 -15.6°
